Location: Lanoux
(43.1180°N, 1.4255°E)
Time: 04:08:39
(UTC+00:00)

Meteor 2-10 - Pass Details

Date: 17 March 2026
Orbit: 736 x 866 km, 81.2° (Epoch: 13 April)

Event Time Altitude Azimuth Distance (km) Brightness Sun altitude
Rises 04:44:51 0° 358° (N) 3,177 7.3 -15.0°
Reaches altitude 10° 04:47:25 10° 9° (N) 2,251 6.7 -14.6°
Maximum altitude 04:51:54 32° 72° (ENE) 1,272 6.0 -13.8°
Drops below altitude 10° 04:56:24 10° 135° (SE) 2,267 6.9 -13.0°
Sets 04:58:59 0° 145° (SE) 3,204 7.6 -12.5°
